| time (UTC) | temp F | wind direction | speed knots | gust knots | rain 1hr in | rain 24hr in | rain mn in | humidity % | barometer mb |
| 20260903135016 | 59 | 273 | 0.0 | 0.0 | 0.00 | 0.00 | 0.00 | 81 | 1012.7 |
| 20260903133526 | 59 | 273 | 0.0 | 0.0 | 0.00 | 0.00 | 0.00 | 83 | 1012.6 |
| 20260903132020 | 59 | 273 | 0.0 | 0.0 | 0.00 | 0.00 | 0.00 | 84 | 1012.5 |
| 20260903130522 | 60 | 273 | 0.0 | 0.0 | 0.00 | 0.00 | 0.00 | 84 | 1012.5 |
| 20260903125017 | 60 | 273 | 0.0 | 0.0 | 0.00 | 0.00 | 0.00 | 84 | 1012.5 |
| 20260903123516 | 60 | 273 | 0.0 | 0.0 | 0.00 | 0.00 | 0.00 | 85 | 1012.5 |
| 20260903122051 | 60 | 273 | 0.0 | 0.0 | 0.00 | 0.00 | 0.00 | 85 | 1012.4 |
| 20260903120550 | 60 | 273 | 0.0 | 0.0 | 0.00 | 0.00 | 0.00 | 85 | 1012.4 |
| 20260903115023 | 60 | 273 | 0.0 | 0.0 | 0.00 | 0.00 | 0.00 | 85 | 1012.5 |
| 20260903113517 | 61 | 273 | 0.0 | 0.0 | 0.00 | 0.00 | 0.00 | 85 | 1012.5 |
| 20260903112033 | 61 | 273 | 0.0 | 0.0 | 0.00 | 0.00 | 0.00 | 84 | 1012.6 |
| 20260903110541 | 61 | 273 | 0.0 | 0.0 | 0.00 | 0.00 | 0.00 | 84 | 1012.6 |
| 20260903105016 | 61 | 273 | 0.0 | 0.0 | 0.00 | 0.00 | 0.00 | 84 | 1012.7 |
| 20260903103516 | 61 | 273 | 0.0 | 0.0 | 0.00 | 0.00 | 0.00 | 84 | 1012.6 |
| 20260903102030 | 61 | 273 | 0.0 | 0.0 | 0.00 | 0.00 | 0.00 | 84 | 1012.6 |
| 20260903100520 | 62 | 273 | 0.0 | 0.0 | 0.00 | 0.00 | 0.00 | 84 | 1012.7 |
| 20260903095028 | 62 | 273 | 0.0 | 0.0 | 0.00 | 0.00 | 0.00 | 84 | 1012.8 |
| 20260903093551 | 62 | 273 | 0.0 | 0.0 | 0.00 | 0.00 | 0.00 | 84 | 1012.8 |
| 20260903092020 | 63 | 273 | 0.0 | 0.0 | 0.00 | 0.00 | 0.00 | 84 | 1013.1 |
| 20260903090517 | 63 | 273 | 0.0 | 0.0 | 0.00 | 0.00 | 0.00 | 84 | 1013.2 |
| 20260903085032 | 63 | 273 | 0.0 | 0.0 | 0.00 | 0.00 | 0.00 | 84 | 1013.2 |
| 20260903083523 | 63 | 273 | 0.0 | 0.0 | 0.00 | 0.00 | 0.00 | 84 | 1013.4 |
| 20260903082037 | 63 | 273 | 0.0 | 0.0 | 0.00 | 0.00 | 0.00 | 84 | 1013.5 |
| 20260903080532 | 63 | 273 | 0.0 | 0.0 | 0.00 | 0.00 | 0.00 | 84 | 1013.7 |
| 20260903075027 | 63 | 273 | 0.0 | 0.0 | 0.00 | 0.00 | 0.00 | 84 | 1013.5 |
| 20260903073525 | 63 | 273 | 0.0 | 0.0 | 0.00 | 0.00 | 0.00 | 84 | 1013.7 |
| 20260903072020 | 64 | 273 | 0.0 | 0.0 | 0.00 | 0.00 | 0.00 | 83 | 1013.5 |
| 20260903070516 | 64 | 273 | 0.0 | 0.0 | 0.00 | 0.00 | 0.00 | 83 | 1013.6 |
| 20260903065046 | 64 | 273 | 0.0 | 0.0 | 0.00 | 0.00 | 0.00 | 83 | 1013.8 |
| 20260903063524 | 64 | 273 | 0.0 | 0.0 | 0.00 | 0.00 | 0.00 | 82 | 1013.7 |
| 20260903062021 | 65 | 273 | 0.0 | 0.0 | 0.00 | 0.00 | 0.00 | 81 | 1013.7 |
| 20260903060519 | 65 | 273 | 0.0 | 0.0 | 0.00 | 0.00 | 0.00 | 81 | 1013.7 |
| 20260903055020 | 65 | 273 | 0.0 | 0.0 | 0.00 | 0.00 | 0.00 | 81 | 1013.9 |
| 20260903053520 | 66 | 273 | 0.0 | 0.0 | 0.00 | 0.00 | 0.00 | 80 | 1013.9 |
| 20260903052037 | 66 | 273 | 0.0 | 0.0 | 0.00 | 0.00 | 0.00 | 80 | 1014.0 |
| 20260903050516 | 66 | 273 | 0.0 | 0.0 | 0.00 | 0.00 | 0.00 | 80 | 1014.1 |
| 20260903045031 | 66 | 273 | 0.0 | 0.0 | 0.00 | 0.00 | 0.00 | 80 | 1014.1 |
| 20260903043527 | 66 | 273 | 0.0 | 0.0 | 0.00 | 0.00 | 0.00 | 80 | 1013.9 |
| 20260903042028 | 67 | 273 | 0.0 | 0.0 | 0.00 | 0.00 | 0.00 | 79 | 1013.8 |
| 20260903040554 | 67 | 273 | 0.0 | 0.0 | 0.00 | 0.00 | 0.00 | 79 | 1013.8 |
| 20260903035028 | 67 | 273 | 0.0 | 0.0 | 0.00 | 0.00 | 0.00 | 78 | 1013.5 |
| 20260903033523 | 67 | 272 | 0.0 | 0.9 | 0.00 | 0.00 | 0.00 | 77 | 1013.3 |
| 20260903032035 | 68 | 271 | 0.0 | 0.9 | 0.00 | 0.00 | 0.00 | 76 | 1013.2 |
| 20260903030515 | 68 | 269 | 0.0 | 6.1 | 0.00 | 0.00 | 0.00 | 74 | 1013.0 |
| 20260903025028 | 69 | 303 | 0.0 | 1.7 | 0.00 | 0.00 | 0.00 | 72 | 1012.9 |
| 20260903023528 | 70 | 295 | 0.0 | 1.7 | 0.00 | 0.00 | 0.00 | 69 | 1012.7 |
| 20260903022024 | 71 | 260 | 0.9 | 2.6 | 0.00 | 0.00 | 0.00 | 64 | 1012.7 |
| 20260903020522 | 72 | 259 | 0.9 | 3.5 | 0.00 | 0.00 | 0.00 | 64 | 1012.8 |
| 20260903015022 | 73 | 288 | 0.9 | 3.5 | 0.00 | 0.00 | 0.00 | 63 | 1012.8 |
| 20260903013521 | 74 | 264 | 0.9 | 3.5 | 0.00 | 0.00 | 0.00 | 61 | 1012.7 |
| 20260903012016 | 76 | 256 | 0.9 | 4.3 | 0.00 | 0.00 | 0.00 | 57 | 1012.7 |
| 20260903010518 | 77 | 236 | 0.0 | 1.7 | 0.00 | 0.00 | 0.00 | 52 | 1012.6 |
| 20260903005014 | 77 | 232 | 0.0 | 1.7 | 0.00 | 0.00 | 0.00 | 51 | 1012.6 |
| 20260903003539 | 77 | 225 | 0.9 | 2.6 | 0.00 | 0.00 | 0.00 | 52 | 1012.6 |
| 20260903002021 | 77 | 263 | 0.9 | 3.5 | 0.00 | 0.00 | 0.00 | 55 | 1012.6 |
| 20260903000547 | 77 | 250 | 0.9 | 9.6 | 0.00 | 0.00 | 0.00 | 55 | 1012.7 |
| 20260902235022 | 78 | 259 | 1.7 | 3.5 | 0.00 | 0.00 | 0.00 | 55 | 1012.7 |
| 20260902233518 | 78 | 281 | 0.9 | 8.7 | 0.00 | 0.00 | 0.00 | 55 | 1012.8 |
| 20260902232014 | 78 | 267 | 0.9 | 7.8 | 0.00 | 0.00 | 0.00 | 54 | 1012.8 |
| 20260902230527 | 78 | 253 | 0.9 | 10.4 | 0.00 | 0.00 | 0.00 | 57 | 1013.0 |
| 20260902225026 | 77 | 267 | 1.7 | 12.2 | 0.00 | 0.00 | 0.00 | 57 | 1013.1 |
| 20260902223527 | 79 | 245 | 1.7 | 8.7 | 0.00 | 0.00 | 0.00 | 57 | 1013.0 |
| 20260902222022 | 78 | 279 | 6.1 | 10.4 | 0.00 | 0.00 | 0.00 | 58 | 1013.1 |
| 20260902220520 | 78 | 263 | 3.5 | 12.2 | 0.00 | 0.00 | 0.00 | 59 | 1013.4 |
| 20260902215019 | 79 | 263 | 0.9 | 8.7 | 0.00 | 0.00 | 0.00 | 56 | 1013.4 |
| 20260902213526 | 78 | 242 | 6.1 | 10.4 | 0.00 | 0.00 | 0.00 | 58 | 1013.4 |
| 20260902212041 | 79 | 271 | 4.3 | 10.4 | 0.00 | 0.00 | 0.00 | 56 | 1013.5 |
| 20260902210524 | 79 | 285 | 6.1 | 12.2 | 0.00 | 0.00 | 0.00 | 56 | 1013.5 |
| 20260902205043 | 80 | 286 | 3.5 | 10.4 | 0.00 | 0.00 | 0.00 | 55 | 1013.5 |
| 20260902203550 | 81 | 253 | 6.1 | 10.4 | 0.00 | 0.00 | 0.00 | 53 | 1013.5 |
| 20260902202026 | 81 | 259 | 3.5 | 11.3 | 0.00 | 0.00 | 0.00 | 52 | 1013.5 |
| 20260902200529 | 82 | 265 | 1.7 | 9.6 | 0.00 | 0.00 | 0.00 | 50 | 1013.7 |
| 20260902195014 | 82 | 215 | 0.9 | 6.1 | 0.00 | 0.00 | 0.00 | 51 | 1013.8 |
| 20260902193552 | 82 | 265 | 1.7 | 7.8 | 0.00 | 0.00 | 0.00 | 50 | 1014.0 |
| 20260902192044 | 81 | 270 | 0.9 | 8.7 | 0.00 | 0.00 | 0.00 | 54 | 1014.2 |
| 20260902190536 | 81 | 269 | 2.6 | 8.7 | 0.00 | 0.00 | 0.00 | 55 | 1014.3 |
| 20260902185027 | 81 | 240 | 0.9 | 7.0 | 0.00 | 0.00 | 0.00 | 53 | 1014.3 |
| 20260902183519 | 79 | 254 | 0.9 | 7.8 | 0.00 | 0.00 | 0.00 | 56 | 1014.6 |
| 20260902182028 | 78 | 242 | 0.9 | 7.0 | 0.00 | 0.00 | 0.00 | 59 | 1014.6 |
| 20260902180522 | 78 | 241 | 0.9 | 7.8 | 0.00 | 0.00 | 0.00 | 58 | 1014.7 |
| 20260902175032 | 76 | 266 | 0.9 | 6.1 | 0.00 | 0.00 | 0.00 | 61 | 1014.9 |
| 20260902173526 | 75 | 272 | 2.6 | 6.1 | 0.00 | 0.00 | 0.00 | 63 | 1014.8 |
| 20260902172033 | 74 | 247 | 1.7 | 4.3 | 0.00 | 0.00 | 0.00 | 66 | 1014.8 |
| 20260902170525 | 73 | 227 | 0.9 | 4.3 | 0.00 | 0.00 | 0.00 | 67 | 1014.7 |
| 20260902165031 | 71 | 321 | 0.0 | 4.3 | 0.00 | 0.00 | 0.00 | 70 | 1014.7 |
| 20260902163522 | 70 | 323 | 0.0 | 0.0 | 0.00 | 0.00 | 0.00 | 72 | 1014.6 |
| 20260902162030 | 69 | 323 | 0.0 | 7.0 | 0.00 | 0.00 | 0.00 | 74 | 1014.9 |
| 20260902160519 | 68 | 360 | 0.0 | 3.5 | 0.00 | 0.00 | 0.00 | 77 | 1014.8 |
| 20260902155028 | 67 | 329 | 0.9 | 5.2 | 0.00 | 0.00 | 0.00 | 79 | 1014.9 |
| 20260902153518 | 66 | 325 | 0.0 | 2.6 | 0.00 | 0.00 | 0.00 | 81 | 1014.7 |
| 20260902152015 | 66 | 324 | 1.7 | 4.3 | 0.00 | 0.00 | 0.00 | 82 | 1014.8 |
| 20260902150548 | 65 | 308 | 0.0 | 3.5 | 0.00 | 0.00 | 0.00 | 84 | 1014.7 |
| 20260902145016 | 64 | 304 | 0.0 | 0.0 | 0.00 | 0.00 | 0.00 | 85 | 1014.7 |
| 20260902143533 | 64 | 304 | 0.0 | 0.0 | 0.00 | 0.00 | 0.00 | 85 | 1014.7 |
| 20260902142035 | 63 | 304 | 0.0 | 0.0 | 0.00 | 0.00 | 0.00 | 86 | 1014.7 |
| 20260902140536 | 63 | 304 | 0.0 | 0.0 | 0.00 | 0.00 | 0.00 | 86 | 1014.7 |